[[{"header":{"parameterUnit":"m.s-1","parameterCategory":1,"la1":30.2991,"la2":30.254,"lo1":-89.0895,"lo2":-89.0444,"dx":0.0017,"dy":0.0017,"nx":28,"ny":28,"refTime":"2022-11-18T15:00:00:Z","depth":0,"parameterNumber":2,"parameterNumberName":"U-component_of_WINDS"},"data":[0,0,0,0,0,0,0,0,0,0,0,0,0,0,0,0,0,0,0,0,0,0,0,0,0,0,0,0,0,0,0,0,0,0,0,0,0,0,0,0,0,0,0,0,0,0,0,0,0,0,0,0,0,0,0,0,0,0,-1.7398,-1.7399,0,-1.748,-1.7481,-1.7482,-1.7412,-1.7409,-1.7406,-1.7403,-1.749,-1.7495,-1.75,0,0,0,0,0,0,0,0,0,0,0,0,0,-1.7181,-1.7185,-1.7398,-1.7399,-1.74,-1.748,-1.7481,-1.7482,-1.7413,-1.7409,-1.7405,-1.7402,-1.7488,-1.7494,-1.75,0,0,0,0,0,0,0,0,0,0,0,0,0,-1.727,-1.7186,-1.7397,-1.7374,-1.7373,-1.748,-1.7481,-1.7483,-1.7413,-1.7409,-1.7404,-1.74,-1.7486,-1.7494,-1.7501,-1.7635,0,0,-1.7524,-1.7527,0,0,0,0,0,0,0,0,-1.7265,-1.7278,-1.7377,-1.7376,-1.7375,-1.7431,-1.7436,-1.7534,-1.7414,-1.7398,-1.7403,-1.7398,-1.7474,-1.7482,-1.7507,-1.7639,-1.7643,-1.7525,-1.7529,-1.7533,-1.7535,0,0,0,0,0,0,0,-1.7259,-1.7274,-1.743,-1.7378,-1.7377,-1.736,-1.7368,-1.7454,-1.746,-1.7399,-1.7394,-1.7405,-1.7473,-1.75,-1.7509,-1.7644,-1.7525,-1.7531,-1.7536,-1.7539,-1.789,-1.7894,0,0,0,0,0,0,-1.7255,-1.727,-1.7428,-1.7433,-1.7308,-1.7368,-1.7377,-1.7418,-1.7459,-1.7461,-1.7409,-1.7401,-1.749,-1.75,-1.7512,-1.7672,-1.7532,-1.754,-1.7544,-1.7885,-1.7891,-1.7896,0,0,0,0,0,0,-1.7251,-1.727,-1.7424,-1.735,-1.7368,-1.7376,-1.7423,-1.7422,-1.7449,-1.7466,-1.7466,-1.7436,-1.7487,-1.7501,-1.7605,-1.7674,-1.7543,-1.755,-1.7879,-1.7887,-1.7893,-1.7993,0,0,0,0,0,0,-1.7245,-1.7269,-1.732,-1.7352,-1.7372,-1.7516,-1.7427,-1.7426,-1.7462,-1.7453,-1.7491,-1.7494,-1.7484,-1.7594,-1.7612,-1.7682,-1.7556,-1.7873,-1.7882,-1.7891,-1.7983,-1.8002,-1.8019,0,0,0,0,0,-1.7237,-1.7345,-1.7323,-1.7342,-1.7436,-1.752,-1.7532,-1.7519,-1.7468,-1.7519,-1.753,-1.7492,-1.7663,-1.7605,-1.7625,-1.7698,-1.7869,-1.788,-1.789,-1.7975,-1.7999,-1.8018,0,0,0,0,0,0,-1.7322,-1.7349,-1.7324,-1.7445,-1.7481,-1.7508,-1.7573,-1.7544,-1.7595,-1.7585,-1.7567,-1.7576,-1.7685,-1.7702,-1.7637,-1.783,-1.7758,-1.7773,-1.7815,-1.7838,-1.7855,-1.785,-1.7562,0,0,0,0,0,-1.7354,-1.742,-1.744,-1.7545,-1.7564,-1.7565,-1.7601,-1.7588,-1.7624,-1.7639,-1.7657,-1.7694,-1.7756,-1.7797,-1.7855,-1.7984,-1.7992,-1.8044,-1.8062,-1.8076,-1.8091,-1.816,-1.8184,-1.7931,-1.7931,-1.7931,0,0,-1.7423,-1.7445,-1.7488,-1.7562,-1.7588,-1.7657,-1.7579,-1.7655,-1.7706,-1.7651,-1.775,-1.7764,-1.7804,-1.7922,-1.7974,-1.7939,-1.8162,-1.809,-1.8102,-1.8108,-1.8174,-1.8198,-1.8219,-1.7939,-1.7937,-1.7936,0,0,-1.7583,-1.7606,-1.7696,-1.7723,-1.7763,-1.7763,-1.7785,-1.7817,-1.7824,-1.7923,-1.7883,-1.7943,-1.805,-1.808,-1.811,-1.828,-1.8247,-1.8299,-1.8392,-1.846,-1.848,-1.8498,-1.856,-1.8582,-1.8312,-1.8313,-1.8313,0,-1.7663,-1.7765,-1.7746,-1.7825,-1.7859,-1.7811,-1.7903,-1.793,-1.7988,-1.8012,-1.7971,-1.8104,-1.8127,-1.8251,-1.8292,-1.8317,-1.8342,-1.8296,-1.8479,-1.8496,-1.8513,-1.8571,-1.8594,-1.8319,-1.8318,-1.8317,-1.8317,0,-1.7862,-1.7933,-1.8001,-1.8056,-1.8098,-1.8182,-1.8177,-1.8221,-1.8203,-1.8208,-1.8309,-1.8335,-1.8398,-1.8425,-1.8409,-1.8547,-1.8524,-1.8481,-1.8409,-1.8543,-1.8598,-1.862,-1.8327,-1.8325,-1.8323,-1.8322,0,0,-1.808,-1.8123,-1.8148,-1.8173,-1.8213,-1.8268,-1.835,-1.841,-1.8448,-1.8489,-1.8558,-1.8648,-1.8609,-1.8642,-1.8629,-1.8689,-1.8822,-1.8638,-1.8639,-1.8673,-1.8976,-1.9009,-1.9036,-1.88,-1.8804,-1.8807,-1.8973,0,-1.8242,-1.8385,-1.8371,-1.8507,-1.8572,-1.8527,-1.8599,-1.8631,-1.8637,-1.8694,-1.87,-1.8765,-1.8707,-1.8727,-1.8784,-1.8794,-1.8883,-1.8782,-1.8865,-1.8868,-1.8858,-1.9064,-1.9099,-1.9255,-1.8994,-1.8998,-1.9001,0,-1.8452,-1.8499,-1.8642,-1.8671,-1.8698,-1.8763,-1.8816,-1.8871,-1.8906,-1.8906,-1.8943,-1.8919,-1.9002,-1.8926,-1.904,-1.8971,-1.9004,-1.9014,-1.9019,-1.9028,-1.8944,-1.908,-1.9304,-1.9328,-1.9034,-1.9031,-1.9029,0,-1.8598,-1.8697,-1.8795,-1.8817,-1.8854,-1.89,-1.8918,-1.8949,-1.8986,-1.9032,-1.9056,-1.9112,-1.9143,-1.9187,-1.9179,-1.9124,-1.9296,-1.9219,-1.9299,-1.9299,-1.9339,-1.9337,-1.9573,-1.9357,-1.9357,-1.9356,-1.9356,0,-1.8782,-1.8872,-1.8861,-1.8922,-1.9021,-1.9002,-1.9101,-1.9112,-1.914,-1.9202,-1.9166,-1.9225,-1.9209,-1.9268,-1.9262,-1.9358,-1.9372,-1.9375,-1.9372,-1.9379,-1.9379,-1.9402,-1.9392,-1.9363,-1.9361,-1.936,-1.9359,0,-1.8963,-1.896,-1.9064,-1.9089,-1.9097,-1.9169,-1.9191,-1.9248,-1.925,-1.9329,-1.9347,-1.9351,-1.9418,-1.9413,-1.9489,-1.9484,-1.9603,-1.9587,-1.9592,-1.9589,-1.9669,-1.9662,-1.993,-1.9964,-1.9725,-1.9728,-1.9729,0,-1.9082,-1.915,-1.9182,-1.922,-1.9241,-1.9304,-1.9341,-1.9325,-1.9365,-1.941,-1.9462,-1.9525,-1.9576,-1.9685,-1.9695,-1.9752,-1.9738,-1.9828,-1.9747,-1.9751,-1.9741,-1.9738,-1.9745,-1.9845,-1.9847,-1.9849,-1.9851,0,-1.9294,-1.9288,-1.9343,-1.9397,-1.9442,-1.9484,-1.9522,-1.9556,-1.9544,-1.9591,-1.9659,-1.9698,-1.9774,-1.9838,-1.9893,-1.991,-1.988,-1.9876,-1.9898,-1.9907,-1.9907,-1.9909,-1.9637,-1.9871,-1.9869,-1.9867,-1.9866,-1.9866,-1.9448,-1.9506,-1.9538,-1.96,-1.9626,-1.9663,-1.9718,-1.9726,-1.9782,-1.9843,-1.983,-1.9906,-1.9939,-2.0009,-2.0032,-2.0091,-2.0059,-2.0091,-2.0099,-2.0107,-2.0117,-1.9896,-2.0101,-2.0101,-2.01,-2.01,-2.0099,0,-1.9659,-1.9676,-1.9733,-1.9788,-1.9836,-1.9801,-1.9841,-1.9885,-1.9952,-1.9985,-2.0035,-2.0112,-2.0174,-2.0187,-2.0246,-2.0291,-2.0279,-2.0307,-2.0305,-2.031,-2.0142,-2.0118,-2.0317,-2.0317,-2.0317,-2.0317,-2.0316,-2.0316,-1.9774,-1.9871,-1.9869,-1.9978,-1.9994,-2.0069,-2.0095,-2.0128,-2.0154,-2.0243,-2.0293,-2.0301,-2.0326,-2.0386,-2.0441,-2.0443,-2.0467,-2.0502,-2.0499,-2.0343,-2.0321,-2.0301,-2.0278,-2.0507,-2.0507,-2.0662,-2.0663,-2.0664]},{"header":{"parameterUnit":"m.s-1","parameterCategory":1,"la1":30.2991,"la2":30.254,"lo1":-89.0895,"lo2":-89.0444,"dx":0.0017,"dy":0.0017,"nx":28,"ny":28,"refTime":"2022-11-18T15:00:00:Z","depth":0,"parameterNumber":3,"parameterNumberName":"V-component_of_WINDS"},"data":[0,0,0,0,0,0,0,0,0,0,0,0,0,0,0,0,0,0,0,0,0,0,0,0,0,0,0,0,0,0,0,0,0,0,0,0,0,0,0,0,0,0,0,0,0,0,0,0,0,0,0,0,0,0,0,0,0,0,-5.2442,-5.2444,0,-5.2539,-5.254,-5.2541,-5.2455,-5.2451,-5.2448,-5.2444,-5.2539,-5.2545,-5.255,0,0,0,0,0,0,0,0,0,0,0,0,0,-5.2179,-5.2185,-5.2442,-5.2444,-5.2445,-5.2538,-5.254,-5.2541,-5.2455,-5.2451,-5.2447,-5.2443,-5.2537,-5.2544,-5.2551,0,0,0,0,0,0,0,0,0,0,0,0,0,-5.2286,-5.2186,-5.2442,-5.2413,-5.2412,-5.2538,-5.254,-5.2541,-5.2456,-5.2451,-5.2446,-5.2441,-5.2535,-5.2543,-5.2552,-5.271,0,0,-5.2578,-5.2582,0,0,0,0,0,0,0,0,-5.228,-5.2296,-5.2416,-5.2416,-5.2414,-5.2479,-5.2482,-5.2598,-5.2458,-5.2439,-5.2444,-5.2438,-5.2523,-5.2532,-5.2562,-5.2715,-5.2719,-5.2579,-5.2584,-5.2588,-5.259,0,0,0,0,0,0,0,-5.2273,-5.2291,-5.248,-5.2418,-5.2417,-5.2394,-5.2403,-5.2503,-5.2509,-5.244,-5.2435,-5.2447,-5.2521,-5.2554,-5.2563,-5.272,-5.2579,-5.2586,-5.2592,-5.2595,-5.3006,-5.3011,0,0,0,0,0,0,-5.2269,-5.2286,-5.2477,-5.2483,-5.2333,-5.2403,-5.2414,-5.2464,-5.2508,-5.251,-5.2452,-5.2443,-5.2541,-5.2553,-5.2566,-5.2754,-5.2588,-5.2596,-5.2601,-5.3,-5.3007,-5.3013,0,0,0,0,0,0,-5.2264,-5.2287,-5.2473,-5.2383,-5.2405,-5.2413,-5.247,-5.2468,-5.2501,-5.2517,-5.2517,-5.2484,-5.2538,-5.2554,-5.2675,-5.2756,-5.26,-5.2608,-5.2993,-5.3002,-5.301,-5.3131,0,0,0,0,0,0,-5.2257,-5.2286,-5.2348,-5.2385,-5.241,-5.2582,-5.2475,-5.2474,-5.2516,-5.2506,-5.2547,-5.2549,-5.2535,-5.2663,-5.2684,-5.2765,-5.2615,-5.2986,-5.2997,-5.3007,-5.312,-5.3143,-5.3162,0,0,0,0,0,-5.2248,-5.2377,-5.2351,-5.2375,-5.2488,-5.2587,-5.2601,-5.2584,-5.2523,-5.2584,-5.2594,-5.2547,-5.2744,-5.2676,-5.2699,-5.2784,-5.2981,-5.2994,-5.3007,-5.311,-5.3138,-5.3162,0,0,0,0,0,0,-5.2348,-5.2382,-5.2353,-5.2499,-5.2541,-5.2573,-5.2649,-5.2615,-5.2674,-5.2661,-5.2636,-5.2646,-5.2774,-5.2791,-5.2714,-5.2939,-5.2852,-5.287,-5.2923,-5.295,-5.2971,-5.2964,-5.2622,0,0,0,0,0,-5.2387,-5.2467,-5.2491,-5.2617,-5.264,-5.2641,-5.2684,-5.2667,-5.2709,-5.2726,-5.2745,-5.2786,-5.2857,-5.2904,-5.297,-5.3122,-5.3129,-5.3192,-5.3213,-5.323,-5.3246,-5.3326,-5.3354,-5.3055,-5.3055,-5.3055,0,0,-5.2468,-5.2497,-5.2548,-5.2638,-5.2669,-5.275,-5.2657,-5.2747,-5.2807,-5.2739,-5.2855,-5.287,-5.2914,-5.3051,-5.3112,-5.3069,-5.333,-5.3246,-5.326,-5.3267,-5.3342,-5.337,-5.3395,-5.3064,-5.3063,-5.3061,0,0,-5.2658,-5.2688,-5.2796,-5.2829,-5.2877,-5.2877,-5.2903,-5.294,-5.2948,-5.3063,-5.3014,-5.3084,-5.3207,-5.324,-5.3273,-5.3475,-5.3433,-5.3497,-5.3607,-5.3686,-5.3709,-5.373,-5.3801,-5.3827,-5.3512,-5.3513,-5.3513,0,-5.2753,-5.2876,-5.2856,-5.295,-5.299,-5.2934,-5.3042,-5.3074,-5.3141,-5.3169,-5.312,-5.3273,-5.3299,-5.3442,-5.3491,-5.352,-5.3547,-5.3492,-5.3708,-5.3728,-5.3747,-5.3814,-5.3841,-5.352,-5.3519,-5.3518,-5.3518,0,-5.2989,-5.3074,-5.3155,-5.3223,-5.3272,-5.3372,-5.3366,-5.3418,-5.3397,-5.3401,-5.3519,-5.3548,-5.3618,-5.3651,-5.3631,-5.3791,-5.3763,-5.3711,-5.3624,-5.3783,-5.3846,-5.3872,-5.3531,-5.3528,-5.3526,-5.3524,0,0,-5.3245,-5.33,-5.333,-5.3359,-5.3407,-5.3472,-5.3569,-5.3639,-5.3684,-5.3731,-5.3811,-5.3916,-5.3869,-5.3906,-5.3889,-5.3958,-5.4114,-5.3897,-5.3898,-5.3936,-5.4291,-5.433,-5.436,-5.4087,-5.4092,-5.4096,-5.4287,0,-5.3437,-5.3607,-5.3592,-5.3753,-5.383,-5.3778,-5.3862,-5.39,-5.3906,-5.3972,-5.3977,-5.4052,-5.3985,-5.4007,-5.4072,-5.4081,-5.4185,-5.4067,-5.416,-5.4163,-5.415,-5.4393,-5.4434,-5.4614,-5.4312,-5.4316,-5.4319,0,-5.3683,-5.374,-5.391,-5.3945,-5.3977,-5.4053,-5.4116,-5.418,-5.422,-5.422,-5.4262,-5.4233,-5.4328,-5.4239,-5.437,-5.429,-5.4326,-5.4336,-5.4343,-5.4351,-5.4251,-5.4407,-5.467,-5.4697,-5.4358,-5.4355,-5.4352,0,-5.3852,-5.3971,-5.4088,-5.4114,-5.4159,-5.4214,-5.4234,-5.427,-5.4313,-5.4367,-5.4394,-5.4458,-5.4493,-5.4543,-5.4531,-5.4467,-5.4664,-5.4574,-5.4665,-5.4666,-5.4709,-5.4707,-5.4982,-5.4734,-5.4733,-5.4733,-5.4732,0,-5.4068,-5.4173,-5.4164,-5.4236,-5.4352,-5.4332,-5.4447,-5.446,-5.4493,-5.4565,-5.4522,-5.459,-5.457,-5.4637,-5.4628,-5.4737,-5.4753,-5.4754,-5.4751,-5.4758,-5.4758,-5.4782,-5.4769,-5.474,-5.4738,-5.4737,-5.4736,0,-5.4276,-5.4275,-5.4398,-5.443,-5.4441,-5.4525,-5.4551,-5.4618,-5.462,-5.4712,-5.4732,-5.4736,-5.4812,-5.4805,-5.489,-5.4884,-5.5019,-5.5001,-5.5006,-5.5002,-5.5094,-5.5085,-5.5394,-5.5433,-5.5159,-5.5162,-5.5164,0,-5.4414,-5.4494,-5.4535,-5.458,-5.4605,-5.468,-5.4723,-5.4706,-5.4753,-5.4805,-5.4865,-5.4937,-5.4995,-5.5119,-5.5128,-5.5193,-5.5175,-5.5279,-5.5184,-5.5189,-5.5176,-5.5171,-5.5179,-5.5297,-5.5301,-5.5303,-5.5305,0,-5.4658,-5.4653,-5.4718,-5.4784,-5.4837,-5.4887,-5.4932,-5.4972,-5.4959,-5.5013,-5.5092,-5.5136,-5.5223,-5.5295,-5.5357,-5.5376,-5.5339,-5.5335,-5.5359,-5.5368,-5.5367,-5.5368,-5.5056,-5.5328,-5.5325,-5.5324,-5.5323,-5.5322,-5.4835,-5.4903,-5.4942,-5.5016,-5.5048,-5.5092,-5.5156,-5.5167,-5.5232,-5.5303,-5.5288,-5.5375,-5.5412,-5.5491,-5.5516,-5.5583,-5.5546,-5.5581,-5.559,-5.5599,-5.561,-5.5357,-5.5594,-5.5594,-5.5593,-5.5593,-5.5592,0,-5.5076,-5.5098,-5.5166,-5.5232,-5.529,-5.525,-5.5298,-5.5348,-5.5427,-5.5465,-5.5522,-5.5611,-5.5681,-5.5696,-5.5762,-5.5812,-5.5797,-5.583,-5.5826,-5.5831,-5.564,-5.5612,-5.5842,-5.5842,-5.5842,-5.5842,-5.5842,-5.5842,-5.5208,-5.5321,-5.5321,-5.5449,-5.547,-5.5557,-5.5587,-5.5626,-5.5657,-5.5759,-5.5817,-5.5826,-5.5855,-5.5922,-5.5984,-5.5986,-5.6012,-5.6053,-5.6048,-5.587,-5.5845,-5.5821,-5.5794,-5.6059,-5.6059,-5.6234,-5.6235,-5.6236]}]]